[[{"header":{"parameterUnit":"m.s-1","parameterCategory":1,"la1":30.2992,"la2":30.254,"lo1":-89.0895,"lo2":-89.0443,"dy":0.0025,"dx":0.0025,"nx":19,"ny":19,"refTime":"2026-04-24T03:00:00:Z","depth":0,"parameterNumber":2,"parameterNumberName":"U-component_of_WINDS"},"data":[0,0,0,-1.4324,-1.4325,-1.4376,-1.4376,-1.4431,-1.4431,0,0,0,0,0,0,0,0,0,0,0,-1.4302,-1.4302,-1.4324,-1.4325,-1.4376,-1.4376,-1.4431,-1.4431,0,0,0,0,0,0,0,0,0,0,0,-1.4302,-1.4302,-1.4302,-1.4325,-1.4376,-1.4376,-1.4431,-1.4396,0,0,0,0,0,0,0,0,0,0,-1.4349,-1.4321,-1.4302,-1.4302,-1.4326,-1.4376,-1.4376,-1.4395,-1.4398,-1.4403,0,-1.4405,0,-1.4419,-1.4434,-1.4434,0,0,0,-1.433,-1.4318,-1.4338,-1.4303,-1.4326,-1.4376,-1.4355,-1.4397,-1.4401,-1.4408,-1.4406,-1.4408,-1.442,-1.4434,-1.4435,-1.4444,-1.4444,0,0,-1.4328,-1.4308,-1.4335,-1.4341,-1.4332,-1.4353,-1.4356,-1.4399,-1.4396,-1.4406,-1.441,-1.4421,-1.4435,-1.4435,-1.4445,-1.4444,0,0,0,-1.4316,-1.4305,-1.4325,-1.4338,-1.4348,-1.4354,-1.4358,-1.4394,-1.4402,-1.4411,-1.4421,-1.4435,-1.4435,-1.4445,-1.4444,-1.4415,0,0,0,-1.4315,-1.4299,-1.4323,-1.4311,-1.4347,-1.4372,-1.4352,-1.4399,-1.4405,-1.4421,-1.4435,-1.4436,-1.4445,-1.4445,-1.4416,-1.4404,0,0,0,-1.4301,-1.4297,-1.4302,-1.431,-1.4331,-1.4371,-1.4382,-1.4401,-1.4411,-1.4434,-1.4436,-1.4445,-1.4445,-1.4417,-1.4406,-1.4401,0,0,0,-1.4281,-1.4275,-1.4301,-1.4299,-1.4331,-1.4353,-1.4382,-1.4399,-1.4416,-1.4435,-1.4445,-1.4445,-1.4418,-1.4408,-1.4402,-1.4393,-1.4387,0,0,-1.4263,-1.4272,-1.4273,-1.4298,-1.431,-1.4347,-1.4355,-1.4389,-1.4409,-1.4432,-1.4432,-1.4416,-1.4406,-1.4401,-1.4362,-1.4357,0,0,0,-1.426,-1.426,-1.4267,-1.4282,-1.4308,-1.4329,-1.4364,-1.4377,-1.4397,-1.4417,-1.4413,-1.4408,-1.4406,-1.4403,-1.4399,-1.4398,-1.4442,-1.4442,-1.4442,-1.4205,-1.4231,-1.4234,-1.4266,-1.428,-1.4317,-1.433,-1.4354,-1.4377,-1.4376,-1.4382,-1.4355,-1.435,-1.4348,-1.4347,-1.438,-1.438,-1.438,-1.438,-1.418,-1.4184,-1.4215,-1.4228,-1.4256,-1.4268,-1.4303,-1.4319,-1.4334,-1.4352,-1.4352,-1.4369,-1.4341,-1.4342,-1.4378,-1.4378,-1.4378,-1.4378,-1.4379,-1.4146,-1.4153,-1.4168,-1.4192,-1.4208,-1.4242,-1.4255,-1.4281,-1.4306,-1.4305,-1.4315,-1.4316,-1.4319,-1.4308,-1.4308,-1.4308,-1.4308,-1.4308,-1.4308,-1.4105,-1.4123,-1.4131,-1.4158,-1.4171,-1.4192,-1.4229,-1.4243,-1.4265,-1.4282,-1.4283,-1.4306,-1.4334,-1.434,-1.4306,-1.4307,-1.4307,-1.4307,-1.4307,-1.4069,-1.4081,-1.4093,-1.4106,-1.414,-1.4155,-1.4188,-1.4214,-1.4229,-1.4235,-1.4258,-1.4275,-1.4287,-1.429,-1.4296,-1.4252,-1.4252,-1.4252,-1.4252,-1.404,-1.4049,-1.4067,-1.4086,-1.4108,-1.4139,-1.4153,-1.4182,-1.4214,-1.4225,-1.4235,-1.4245,-1.4247,-1.4258,-1.4262,-1.4267,-1.4218,-1.4218,-1.4218,-1.402,-1.4032,-1.4038,-1.4069,-1.4098,-1.4122,-1.4136,-1.4157,-1.4197,-1.4217,-1.4235,-1.4236,-1.4252,-1.4256,-1.4276,-1.4281,-1.4292,0,0]},{"header":{"parameterUnit":"m.s-1","parameterCategory":1,"la1":30.2992,"la2":30.254,"lo1":-89.0895,"lo2":-89.0443,"dy":0.0025,"dx":0.0025,"nx":19,"ny":19,"refTime":"2026-04-24T03:00:00:Z","depth":0,"parameterNumber":3,"parameterNumberName":"V-component_of_WINDS"},"data":[0,0,0,3.5983,3.5982,3.5917,3.5916,3.5852,3.5851,0,0,0,0,0,0,0,0,0,0,0,3.6015,3.6015,3.5983,3.5982,3.5917,3.5916,3.5852,3.5851,0,0,0,0,0,0,0,0,0,0,0,3.6015,3.6015,3.6015,3.5981,3.5917,3.5916,3.5852,3.5894,0,0,0,0,0,0,0,0,0,0,3.5953,3.5996,3.6015,3.6015,3.5981,3.5917,3.5916,3.5896,3.5891,3.5889,0,3.5893,0,3.5871,3.5848,3.5848,0,0,0,3.5971,3.6,3.5971,3.6015,3.5981,3.5917,3.5943,3.5893,3.5888,3.5884,3.5891,3.5889,3.587,3.5848,3.5848,3.5874,3.5875,0,0,3.5975,3.6009,3.5974,3.5968,3.5981,3.5945,3.5941,3.589,3.59,3.5891,3.5887,3.5869,3.5848,3.5847,3.5874,3.5874,0,0,0,3.5992,3.6012,3.5984,3.5972,3.5959,3.5944,3.5939,3.5902,3.589,3.5886,3.5868,3.5847,3.5847,3.5873,3.5874,3.5937,0,0,0,3.5994,3.6022,3.5986,3.6007,3.596,3.593,3.5953,3.5894,3.5887,3.5869,3.5847,3.5846,3.5872,3.5873,3.5934,3.5961,0,0,0,3.6014,3.6024,3.602,3.6009,3.5982,3.593,3.5915,3.5891,3.5877,3.5848,3.5846,3.5872,3.5873,3.5931,3.5956,3.5978,0,0,0,3.6046,3.6076,3.6021,3.6048,3.5983,3.597,3.5915,3.5903,3.5886,3.5847,3.5872,3.5874,3.593,3.5953,3.5975,3.6002,3.6017,0,0,3.6103,3.6084,3.6097,3.6046,3.6052,3.5977,3.5991,3.5943,3.5908,3.5887,3.5887,3.5935,3.5956,3.5977,3.6088,3.61,0,0,0,3.6127,3.6136,3.613,3.6117,3.6082,3.6053,3.5999,3.598,3.5961,3.5905,3.5948,3.5959,3.597,3.5981,3.5991,3.5998,3.5881,3.5881,3.588,3.6256,3.6211,3.6229,3.6176,3.6164,3.6108,3.6093,3.6058,3.6015,3.6027,3.602,3.6093,3.6108,3.6115,3.6123,3.6031,3.6031,3.6031,3.6031,3.6335,3.6342,3.6285,3.6282,3.6234,3.623,3.6177,3.6147,3.6136,3.6094,3.6101,3.606,3.613,3.6134,3.6036,3.6035,3.6034,3.6034,3.6034,3.6415,3.641,3.6388,3.6364,3.635,3.6294,3.6287,3.6242,3.62,3.6208,3.6195,3.6194,3.6187,3.6205,3.6205,3.6206,3.6206,3.6206,3.6206,3.6506,3.6479,3.6479,3.6444,3.6429,3.6404,3.6348,3.6332,3.6302,3.627,3.627,3.6226,3.6145,3.6126,3.621,3.6209,3.6209,3.6208,3.6208,3.6602,3.6573,3.6573,3.6558,3.6513,3.6502,3.6446,3.6416,3.6396,3.6393,3.6347,3.6296,3.6273,3.6264,3.6247,3.6358,3.6358,3.6358,3.6358,3.6669,3.6653,3.6643,3.6622,3.6597,3.6546,3.6546,3.6502,3.6452,3.6436,3.6414,3.6388,3.6382,3.6362,3.6352,3.6336,3.6466,3.6466,3.6466,3.6725,3.6705,3.6714,3.6666,3.6628,3.6595,3.6593,3.657,3.6507,3.6469,3.6423,3.6418,3.6376,3.6365,3.6327,3.6311,3.6281,0,0]}]]